Blue River Airport
CYCP : now visible

Aeroporto :











RITROVATECI SU...

 
LOGIN :

Iscrizione | Disclaimer

   EN    FR    IT 

 









Sommario :    VFR   VFR Marginale   IFR   IFR Intensivo   IFR Molto Intensivo
Visibilità : 
Base nubi : 
>= 8 km
>= 3000ft
5 / 8 km
1000 / 3000 ft
1500m / 5 km
500 / 1000 ft
800 / 1500m
200 / 500 ft
< 800m
< 200 ft
Simboli :   Temporali  Nebbia  Neve Forte  Precipitazioni Forti  Vento > 20 kt






- Altitudine del aeroporto : 2240 ft


CYCP - Blue River

ULTIMO METAR :
  • 101500Z 00000KT 15SM FEW055 FEW300 13/10 A3011 RMK CU1CI1 CU TR SLP202 DENSITY ALT 2300FT

METARs OBSOLETI :
  • 101400Z 00000KT 15SM FEW002 FEW050 FEW100 FEW160 SCT300 09/09 A3011 RMK ST1CU1AC1AC1CI2 ST TR CU TR SLP203
  • 101300Z 00000KT 15SM FEW002 FEW100 SCT160 BKN300 08/08 A3011 RMK ST1AC2AC2CI2 ST TR SLP202

TAF N/A
FIR CZVR / America del Nord



MetMap, La meteo Aeronautica in un colpo d'occhio ! - Copyright ORBIFLY Dicembre 2007 - Disclaimer

ORBIFLY MET'MAP TEAM :

Programmazione e sviluppo : Alexandra Zaïnal
Concezione : Baudouin d'Aumeries
Aiuto per la programmazione : Marc-Olivier Méhu
Supporto tecnico e logistico : Manuel Goepfert
Aiuto per la traduzione : Arnaldo La Scala

Contatto : metmap@orbifly.com




FONTI E CREDITI :

   NOAA       Earth
Advisory